GFSWCAN_850_thetae_057.txt.gz
Theta_e
309 308 308 309 311 311 309 308 308 307 306 306 306 307 308 308 308 308 309 309 308 306 307 307 306 307 307 307 308 308 309 309 310 311 312 313 314 313 314 315 314 318 318 319 318 322 325 319 320 323 325 324 323 324
308 308 308 310 311 308 306 306 305 306 308 310 311 311 311 309 309 309 309 309 309 308 308 308 308 308 307 307 307 307 307 308 308 309 310 311 311 312 312 316 312 315 315 315 316 314 315 315 318 318 317 317 320 320
308 308 310 311 309 305 305 307 311 312 313 313 314 313 311 309 309 309 310 309 309 307 308 308 310 309 309 308 308 307 308 307 308 308 307 307 309 310 311 313 311 311 312 312 313 314 314 313 316 315 316 316 317 317
308 310 311 310 306 306 311 312 313 313 314 314 313 312 311 310 309 309 309 309 308 307 307 310 309 308 309 308 308 308 308 307 307 307 307 308 310 308 310 310 310 311 310 310 310 311 310 312 312 312 313 314 315 316
309 311 310 307 305 311 312 313 313 314 314 313 312 312 310 309 311 311 309 307 306 307 308 308 310 309 309 308 307 307 307 306 305 307 307 308 307 306 307 309 311 308 309 310 310 308 307 308 309 310 310 311 313 315
310 311 309 305 309 312 313 313 313 314 314 312 312 311 310 311 311 311 310 309 307 307 307 310 309 310 309 307 307 307 307 306 306 305 306 306 307 306 308 308 307 307 306 307 307 306 306 307 309 312 310 310 311 314
311 312 309 306 312 313 313 313 313 314 313 312 313 311 310 310 310 310 311 308 307 306 307 309 312 310 310 309 307 306 306 305 305 304 302 302 303 304 305 307 305 306 308 308 311 313 313 314 313 319 314 311 310 312
312 312 309 308 312 313 313 313 313 314 314 313 313 313 312 312 312 312 309 308 307 307 307 311 312 312 311 310 308 306 306 305 305 304 303 302 302 301 304 304 307 308 307 308 310 314 318 318 316 315 313 311 311 311
312 311 308 311 313 314 313 313 312 314 316 315 315 315 314 313 313 312 310 310 309 308 310 311 314 316 310 310 308 307 306 306 305 304 304 302 303 306 308 308 306 308 309 307 310 311 315 316 315 314 312 312 311 312
313 311 307 312 313 313 313 312 313 317 317 317 317 317 317 316 315 313 313 312 311 311 311 309 312 316 312 312 311 308 305 309 310 309 305 306 305 310 310 309 307 308 307 307 309 311 311 311 314 316 313 312 312 312
313 312 308 312 313 313 312 314 314 318 319 319 320 320 316 316 315 315 318 318 320 317 316 313 314 319 315 314 315 312 313 312 315 314 313 312 309 310 310 309 308 308 306 306 308 309 310 310 311 314 316 313 313 314
313 312 309 312 313 313 313 316 317 318 319 316 316 315 317 317 318 320 320 320 322 322 320 321 319 319 317 314 313 315 318 316 318 312 311 311 311 310 310 308 307 308 307 308 307 307 307 308 309 310 312 316 316 316
313 312 310 311 312 312 313 315 316 317 317 320 321 322 320 317 319 318 317 321 318 315 313 314 321 317 320 317 316 319 319 318 313 313 310 312 310 309 309 309 306 307 308 308 308 307 307 307 308 308 308 310 313 315
312 313 310 311 313 312 313 313 316 317 318 323 320 314 320 320 320 318 316 315 313 313 313 315 319 319 319 320 317 317 317 313 313 311 312 310 310 309 308 307 306 306 307 308 307 308 306 305 306 307 308 308 309 310
312 314 314 315 316 314 314 316 317 318 320 319 319 316 319 317 315 314 313 313 312 313 314 317 319 318 318 317 316 315 314 313 313 312 310 310 309 308 308 304 307 305 307 307 308 306 307 306 305 305 306 307 308 308
313 316 317 316 315 315 319 320 319 319 319 319 318 320 318 316 315 314 313 313 312 313 313 315 317 317 315 315 313 312 313 313 313 313 310 310 308 306 307 303 305 305 305 306 306 307 306 307 305 305 304 304 305 306
314 321 318 316 315 317 319 319 322 320 319 319 318 317 317 315 314 314 313 312 312 312 315 313 313 313 314 311 312 314 312 310 307 307 310 309 306 305 304 303 304 304 305 305 306 306 306 306 305 306 305 304 303 303
315 315 314 315 316 320 323 320 320 320 319 318 318 318 318 315 314 314 313 312 311 311 311 312 310 310 310 308 309 309 307 306 305 306 308 307 304 305 303 303 303 304 305 304 305 305 305 304 305 304 304 305 304 303
314 314 313 315 317 320 323 321 320 321 319 319 319 318 318 317 315 314 313 312 311 310 310 310 311 310 309 308 307 307 306 305 306 306 305 304 303 303 303 303 303 304 305 303 303 303 303 303 303 303 302 302 303 303
314 315 314 315 318 322 326 321 321 323 320 318 319 318 317 317 318 316 314 313 312 311 311 311 311 309 309 308 307 307 306 305 305 305 305 303 302 303 303 303 303 303 303 303 302 301 301 301 302 302 301 300 301 300
319 323 317 319 324 323 321 320 322 321 319 320 320 320 319 318 317 316 314 314 312 312 312 311 310 310 308 309 308 306 307 304 304 305 303 303 302 303 303 302 302 303 303 302 302 301 301 300 301 301 301 300 300 299
322 318 316 326 325 323 322 320 319 321 321 321 320 320 320 320 319 316 315 315 313 312 312 312 311 310 310 310 310 308 307 306 305 303 303 302 301 302 302 302 302 302 302 302 302 301 300 300 300 300 300 300 300 300
318 318 325 326 323 322 319 320 322 322 322 320 320 320 319 319 318 316 317 314 314 313 313 313 312 312 312 311 311 309 308 306 304 303 302 302 301 301 301 302 301 301 300 301 301 301 300 300 300 299 300 300 301 301
325 324 326 325 323 320 321 322 323 321 320 320 321 321 321 319 318 317 319 315 314 313 313 312 312 311 311 311 309 307 303 303 302 302 301 301 300 300 300 301 301 300 299 300 300 300 300 300 299 299 299 300 300 300
325 322 323 321 320 322 322 323 322 321 321 321 322 323 321 318 318 317 314 315 314 313 313 313 312 310 309 307 305 303 302 301 301 301 301 300 300 300 300 300 299 298 299 299 299 299 300 299 300 299 299 300 300 299
314 323 321 323 322 322 322 323 324 320 319 318 321 319 320 317 317 319 318 316 315 314 314 313 311 309 306 305 304 304 303 302 301 302 301 300 300 299 299 299 298 297 298 298 298 299 299 299 299 300 299 299 299 299
313 321 323 321 321 319 319 318 318 321 321 319 318 321 320 318 316 316 315 317 315 313 312 310 309 308 306 304 303 303 302 302 302 302 301 301 300 299 299 298 298 297 298 297 297 297 297 297 298 299 299 298 298 299
323 323 324 322 320 319 319 318 319 320 323 320 319 321 320 315 314 316 316 315 314 313 311 309 309 308 307 305 304 303 303 302 301 301 301 300 300 299 298 298 298 298 298 297 297 297 296 297 297 298 299 298 298 298
322 322 322 324 319 318 319 318 320 322 321 321 320 321 319 314 317 317 316 314 313 312 309 307 306 304 304 303 303 302 302 301 301 300 299 299 299 298 298 298 298 298 298 298 297 296 296 296 297 297 298 298 298 298
323 324 324 324 325 325 321 321 322 322 322 320 319 319 319 317 315 316 314 311 310 309 307 306 305 304 303 303 302 301 301 300 299 298 298 297 297 298 297 297 297 297 297 297 297 297 297 297 297 297 297 297 297 298
323 322 323 323 324 325 321 322 322 321 321 319 320 320 318 315 314 312 310 309 309 308 306 305 303 303 302 302 301 301 299 298 297 297 295 296 296 297 297 296 296 296 296 297 297 297 297 297 297 297 297 297 297 297
323 323 324 324 323 324 323 323 322 319 317 317 317 317 318 319 316 313 309 309 307 305 304 303 303 302 301 301 300 299 299 298 297 295 293 294 295 296 295 295 295 295 296 296 296 297 297 297 297 297 297 297 296 296
323 322 322 321 321 321 323 324 320 321 320 320 318 319 318 317 314 311 308 306 305 304 303 302 302 301 301 301 300 300 299 298 297 295 294 293 293 293 293 294 294 294 295 296 296 296 296 296 296 296 296 296 295 295

GFSWCAN_850_thetae_060.txt.gz
Theta_e
310 309 308 309 310 309 305 305 308 311 312 312 312 312 310 308 309 309 309 309 308 307 308 308 307 307 307 307 308 306 304 307 308 308 310 311 312 311 313 312 313 315 318 317 316 320 326 313 316 320 316 315 315 317
309 309 309 310 309 306 307 311 312 313 313 313 314 311 309 309 309 309 309 309 309 308 309 308 309 309 309 308 307 307 307 307 307 305 305 307 310 311 312 313 312 314 312 314 312 315 311 309 314 315 315 313 313 314
309 309 310 310 306 306 312 312 313 313 313 314 312 312 311 309 309 308 309 309 308 307 308 309 309 309 308 308 308 307 307 308 307 307 305 304 308 307 308 310 311 309 309 309 309 311 308 308 308 312 312 310 311 311
309 310 311 309 305 310 312 313 313 313 314 313 312 311 310 309 309 308 308 307 307 307 306 309 309 310 308 307 308 308 307 308 307 306 305 302 304 305 306 307 309 308 308 309 308 308 308 309 309 308 309 309 310 311
309 310 311 309 306 312 313 313 313 313 313 312 311 310 310 311 311 311 310 308 307 307 307 309 309 309 308 307 307 307 307 306 305 306 306 305 306 306 304 305 308 306 308 310 310 308 308 308 309 311 310 312 312 312
309 311 312 309 308 312 313 313 313 313 313 313 311 311 311 311 311 311 311 309 307 307 307 306 310 310 309 307 306 307 307 306 305 305 304 304 304 305 306 307 306 306 307 308 308 308 308 311 313 314 314 316 318 318
309 311 311 308 311 313 313 313 312 313 313 313 312 311 311 310 310 309 309 308 307 306 307 308 310 312 311 309 308 307 306 305 304 304 304 303 303 304 304 307 304 306 307 307 307 309 312 314 315 317 318 315 314 316
310 312 310 308 312 313 313 312 312 314 315 313 314 312 312 313 312 312 311 310 308 307 308 309 311 311 311 311 310 309 307 306 305 304 304 304 303 302 305 306 306 307 306 306 308 310 311 311 314 315 315 315 314 313
312 313 310 309 312 313 312 313 313 315 316 316 315 315 314 314 314 313 312 311 309 309 309 309 309 315 313 311 309 309 308 307 305 305 305 304 303 307 308 309 308 308 308 307 308 308 308 309 309 311 315 315 315 312
313 313 311 309 313 312 313 315 315 317 318 317 316 317 318 316 314 314 313 312 312 311 310 309 313 313 312 311 309 308 306 309 310 309 305 306 305 308 309 307 308 308 307 308 307 307 307 307 308 309 312 316 315 313
313 312 312 309 312 313 312 316 316 317 318 317 318 320 317 315 314 315 314 314 316 311 313 313 312 312 314 314 313 310 310 310 311 308 310 306 307 308 308 308 306 308 307 307 307 306 307 307 306 308 310 315 316 314
313 312 312 309 312 312 312 314 316 316 317 317 316 316 317 317 317 316 313 316 315 315 317 316 317 315 315 314 313 313 316 313 315 308 307 309 309 308 308 307 305 307 308 307 307 306 306 307 307 307 307 309 312 315
313 312 312 310 311 313 313 313 314 316 316 317 320 319 321 317 310 315 313 310 310 312 312 312 316 319 316 315 314 313 316 314 311 308 308 306 309 308 308 305 306 306 307 307 307 307 305 305 306 307 306 306 307 309
313 313 313 315 316 315 314 313 315 316 317 319 324 310 315 317 313 311 310 309 312 312 312 312 318 318 318 315 314 315 313 309 309 307 308 304 309 307 306 303 305 306 306 307 306 306 305 305 305 305 306 307 306 305
314 313 316 317 315 314 315 315 317 318 318 321 319 317 317 314 314 313 312 312 312 311 312 316 318 315 311 312 310 308 310 306 311 311 306 309 307 306 304 303 304 305 305 307 307 306 305 305 304 304 304 305 305 306
314 313 317 316 316 315 319 319 320 320 320 320 319 317 316 313 313 313 312 311 311 311 312 313 311 311 311 308 310 309 308 305 305 306 310 308 304 304 303 303 303 305 305 306 306 307 306 305 305 304 303 303 303 303
314 316 315 313 315 316 319 319 320 322 319 319 318 317 317 314 314 313 312 311 310 310 308 308 308 309 308 307 307 304 304 303 305 306 309 305 304 305 303 303 303 305 304 305 305 305 304 305 304 305 304 303 302 301
314 314 314 313 314 317 320 322 321 319 319 318 318 318 318 315 314 313 312 311 310 310 310 308 308 306 306 307 305 304 306 305 305 306 304 304 303 303 303 303 303 305 302 303 303 303 303 303 302 302 302 303 302 301
314 314 314 313 315 317 321 323 320 321 320 319 319 317 317 317 315 313 312 311 311 310 310 309 306 306 305 306 306 306 306 305 305 304 305 303 302 303 303 303 303 304 302 302 302 301 301 302 302 300 301 301 300 299
315 317 314 315 317 320 324 322 320 321 322 319 319 317 317 317 317 315 313 312 311 311 310 308 308 308 308 308 307 307 306 304 304 304 305 302 302 303 303 302 303 303 302 301 301 301 301 301 301 300 300 300 300 299
316 323 318 317 323 323 323 320 320 321 320 319 320 319 318 318 318 317 313 312 312 311 310 310 310 309 309 308 308 307 307 305 305 305 305 302 301 301 302 302 302 301 301 301 301 300 300 300 300 300 299 300 300 299
318 316 316 323 325 325 322 322 319 319 321 320 321 320 320 320 319 316 315 315 313 312 312 311 311 311 310 309 309 308 307 307 306 303 302 301 301 301 302 301 301 300 301 301 301 300 300 300 299 300 301 300 300 299
320 318 322 325 325 323 320 319 320 321 322 320 321 320 319 318 317 317 314 313 313 313 312 312 311 311 311 311 310 308 307 307 303 302 301 301 300 301 301 301 300 299 300 300 300 300 299 299 299 301 301 300 299 299
323 322 326 326 324 320 321 322 323 321 317 318 319 319 318 316 316 310 310 313 313 313 314 312 311 310 309 310 306 303 303 302 301 301 300 300 300 300 300 300 299 299 299 299 299 299 299 299 299 300 300 299 300 299
323 321 320 322 320 321 323 323 321 318 317 317 317 319 317 315 315 311 310 314 315 314 313 312 310 307 307 308 304 303 302 301 301 301 301 300 299 299 298 298 298 298 298 299 299 299 299 299 299 299 300 299 298 298
313 323 321 323 321 320 319 321 320 319 318 318 317 319 317 316 317 317 315 315 315 313 313 311 307 305 304 304 303 302 302 302 302 301 300 300 299 299 298 298 297 297 298 298 298 297 298 299 299 299 299 299 299 299
314 318 321 322 320 319 318 318 318 319 321 319 317 319 317 315 315 315 316 316 315 313 310 309 308 307 306 304 304 302 302 302 301 301 300 300 299 299 298 298 298 298 297 297 297 297 297 298 298 298 298 298 298 298
325 323 324 320 320 319 320 319 319 318 320 319 319 320 318 317 314 315 317 314 313 312 310 308 306 307 305 304 303 302 301 301 300 300 299 299 299 298 298 298 297 297 297 297 296 296 296 297 298 298 298 298 298 298
322 323 323 322 320 320 320 318 319 321 319 316 316 320 316 314 317 317 315 313 312 309 306 303 303 303 303 302 302 301 300 300 299 298 297 298 298 297 297 297 297 297 297 297 296 297 297 297 297 297 298 298 297 298
323 323 323 324 322 322 321 319 320 320 316 317 318 317 316 315 311 310 309 309 307 305 304 303 302 302 302 301 301 300 299 298 297 296 296 297 297 297 297 296 296 296 297 297 296 297 297 297 297 297 297 297 297 298
323 323 325 324 325 323 322 321 320 318 318 318 317 316 315 314 312 310 309 308 305 304 304 303 302 301 301 300 300 300 298 297 295 294 296 296 296 296 295 295 295 296 296 296 297 297 297 297 297 297 297 297 297 297
322 323 323 321 324 322 324 322 320 318 317 317 317 316 315 314 314 308 306 306 305 305 303 302 301 301 301 300 300 299 298 296 294 293 294 295 295 295 295 295 295 296 296 296 296 296 296 296 296 296 296 296 296 296
323 323 323 323 324 324 323 324 320 320 319 319 318 318 319 318 312 308 305 305 305 304 302 302 301 301 301 300 299 299 297 295 294 294 293 293 292 293 294 294 294 295 295 295 295 295 295 295 295 295 294 294 294 294

GFSWCAN_850_thetae_063.txt.gz
Theta_e
309 308 309 310 310 305 307 311 312 312 312 313 313 311 308 308 308 308 309 309 308 308 308 308 308 306 307 307 308 306 305 306 305 306 309 308 310 310 311 310 312 313 314 316 315 321 327 310 312 320 316 314 313 312
309 308 310 311 309 305 310 312 312 312 313 313 312 311 309 309 308 308 309 309 309 308 308 309 309 309 308 308 307 307 307 305 306 305 305 306 309 309 309 314 310 313 310 313 310 312 311 309 309 309 312 310 310 310
308 309 310 311 309 307 312 313 312 312 313 313 312 311 310 308 308 308 308 308 308 307 308 309 309 309 307 308 306 307 306 307 307 306 306 304 310 307 310 310 309 309 308 309 309 309 308 308 310 310 310 310 310 311
308 309 310 311 309 309 312 313 312 312 313 312 311 310 309 309 309 308 308 307 307 306 305 309 309 309 306 307 307 308 307 307 306 305 303 304 306 305 309 309 308 308 307 308 308 308 308 310 309 310 311 312 314 314
309 309 311 311 308 310 313 313 312 313 313 312 311 312 311 311 310 309 309 307 307 308 307 309 309 309 307 307 307 306 307 306 305 305 304 305 306 305 304 306 308 305 308 310 310 308 309 308 309 313 312 315 316 315
309 310 311 310 308 312 313 312 312 313 313 313 311 311 311 311 311 310 311 310 307 307 307 308 310 310 309 307 307 307 306 306 305 305 304 303 303 305 307 309 306 306 307 307 307 307 309 311 312 314 314 316 317 315
309 311 312 310 309 312 312 313 312 314 314 313 312 311 311 311 310 310 309 309 309 307 307 309 311 311 311 310 308 307 306 305 304 304 304 303 304 303 305 307 307 307 307 308 308 308 309 310 310 310 312 315 316 316
310 312 313 310 310 312 312 314 314 315 316 314 314 313 312 313 312 312 311 310 309 308 308 304 310 311 312 311 310 308 308 306 304 305 305 304 303 302 307 308 307 308 307 308 307 307 307 307 308 310 311 313 314 315
311 313 312 310 310 312 312 315 316 317 317 317 316 315 315 314 314 313 312 310 309 309 309 308 310 310 312 312 310 309 308 307 306 305 306 305 305 308 307 308 307 308 307 307 307 306 307 307 307 308 309 313 314 315
313 313 312 311 310 312 312 315 316 317 318 317 317 317 317 316 314 312 312 311 311 310 309 307 310 312 313 311 310 309 307 309 309 307 306 305 304 306 307 307 306 307 307 307 306 306 306 306 306 307 308 311 313 314
313 312 312 312 310 312 312 312 315 316 317 317 316 318 317 316 313 314 313 311 313 311 312 311 311 310 313 313 313 310 309 309 312 309 309 308 307 306 307 305 306 306 308 307 305 305 305 305 306 305 305 306 309 314
313 312 312 312 310 311 312 313 313 314 315 316 317 317 317 316 315 313 310 312 312 314 314 314 315 313 314 314 313 311 314 312 311 308 307 302 308 306 307 304 304 306 307 307 305 304 304 305 305 305 305 304 305 308
313 313 313 311 314 316 316 315 313 313 315 316 318 318 319 316 307 312 309 308 308 310 311 310 310 317 314 314 313 312 315 313 307 306 307 306 308 307 306 303 303 305 306 307 306 305 304 304 305 304 304 305 304 304
313 314 313 314 317 315 314 314 314 315 316 318 321 313 314 313 310 309 308 307 311 311 310 310 314 317 316 314 314 313 310 307 306 299 305 304 309 305 304 303 303 305 305 306 307 305 305 304 303 303 303 303 304 305
313 314 313 316 317 315 315 317 316 318 318 319 320 315 313 313 313 312 312 311 310 310 310 316 314 312 308 310 306 306 308 303 307 302 304 309 306 305 303 303 303 305 305 305 305 306 305 304 304 302 301 302 302 302
313 313 315 318 315 314 316 318 319 319 319 320 320 315 315 311 312 313 312 311 310 310 310 310 307 308 308 306 308 307 306 301 302 303 306 307 304 304 303 303 303 305 305 305 304 303 305 305 304 304 301 300 300 301
312 313 313 313 313 314 316 317 318 321 320 318 317 317 316 314 313 313 312 311 310 309 306 306 306 307 304 305 305 301 302 301 304 305 307 306 306 303 303 303 304 304 303 304 304 303 303 302 302 302 303 301 300 300
312 313 314 313 313 315 319 319 321 321 320 319 317 317 317 317 314 314 312 311 310 309 309 307 306 305 305 306 304 303 305 304 305 305 303 303 302 303 303 303 303 302 302 301 301 301 302 301 300 301 300 300 300 300
313 314 315 314 314 316 320 324 323 319 320 319 318 318 316 316 316 314 312 311 310 309 309 308 305 305 304 304 305 306 305 304 305 304 304 303 302 303 302 303 303 303 302 301 301 300 301 301 299 300 299 299 300 300
315 317 315 317 316 318 322 324 321 320 321 319 319 318 317 317 316 316 312 310 310 310 309 307 307 307 307 307 307 307 306 304 303 304 305 303 301 301 302 302 302 302 301 301 300 300 300 300 300 299 300 299 300 300
317 322 319 315 321 322 322 321 319 321 321 319 318 318 318 317 317 317 312 312 312 310 309 310 309 309 309 308 308 307 308 305 306 306 304 301 301 301 302 301 301 301 301 301 300 300 299 299 300 299 300 300 299 300
319 319 318 320 325 325 324 322 321 319 320 321 320 320 318 317 316 317 315 314 313 312 312 311 311 310 309 309 308 308 307 306 307 302 301 300 300 301 301 300 300 300 300 300 300 299 299 299 300 299 300 299 299 300
320 320 321 324 325 323 322 320 319 319 320 321 319 318 315 315 315 316 312 313 313 313 313 313 311 310 311 310 309 308 307 306 304 301 301 300 300 301 301 300 299 299 299 300 299 299 299 300 300 300 300 299 299 300
319 321 324 325 325 321 321 322 322 319 317 316 316 318 315 315 315 311 310 311 313 313 312 312 311 311 310 310 308 307 304 302 301 301 300 300 300 300 299 299 298 298 299 299 299 299 299 299 300 299 299 299 299 299
321 321 320 319 320 319 321 320 318 316 316 315 316 316 314 314 315 313 311 312 315 313 312 312 309 307 307 308 307 303 302 301 301 301 300 300 299 298 298 298 298 298 298 298 299 299 299 299 299 299 299 298 298 298
313 323 320 321 321 319 318 318 319 318 317 318 317 318 316 315 317 316 314 315 314 313 312 309 308 306 305 304 303 303 302 301 301 301 300 299 299 300 300 297 298 298 297 297 297 298 298 299 299 299 299 299 298 298
314 318 319 322 320 319 318 318 318 317 320 320 319 319 318 316 315 314 315 315 314 311 309 309 308 306 304 303 303 302 302 301 301 300 300 300 300 298 298 298 298 297 297 296 297 297 297 298 298 298 298 298 298 298
322 324 321 322 320 319 318 317 317 317 319 317 313 317 317 316 313 316 316 314 312 311 309 307 306 305 303 302 302 301 301 300 300 299 299 298 298 298 297 297 297 297 296 296 296 296 297 298 298 298 297 297 297 297
322 324 323 321 320 320 319 317 317 320 320 318 314 316 316 314 314 315 313 314 313 310 307 305 304 303 302 301 300 299 299 298 298 297 298 297 297 297 297 297 296 296 296 297 297 297 297 297 297 297 297 297 298 297
321 321 322 322 321 320 322 319 319 319 317 318 319 317 315 310 309 309 309 311 309 305 303 303 302 302 301 301 300 299 299 297 294 295 297 297 297 296 296 295 296 296 296 296 297 297 297 297 297 297 297 297 297 297
321 323 323 323 323 323 322 320 320 316 317 317 316 315 313 309 307 306 306 306 305 304 303 302 301 300 300 300 299 299 296 294 296 296 296 296 296 295 295 295 296 296 296 296 296 296 297 297 297 296 296 296 296 296
323 323 322 320 322 321 320 319 318 318 317 317 316 315 313 314 309 304 304 305 305 303 301 301 300 300 300 299 298 296 293 293 293 295 295 295 295 294 294 295 295 296 296 296 296 296 296 296 296 296 296 295 295 295
323 323 322 323 320 321 322 320 319 318 317 317 317 316 315 315 311 306 304 304 304 304 302 301 300 300 299 299 298 296 295 294 293 293 292 292 293 293 294 295 295 295 295 295 295 295 295 295 294 294 293 293 294 294

GFSWCAN_850_thetae_069.txt.gz
Theta_e
310 309 308 309 310 308 309 312 312 311 312 312 311 310 308 308 308 308 307 308 307 307 308 308 308 307 307 306 307 306 306 307 307 308 308 309 311 310 310 308 308 309 310 310 310 310 312 309 309 313 310 311 312 313
310 309 308 309 310 308 311 312 311 312 312 311 311 309 309 308 308 308 308 307 307 308 308 308 309 307 306 307 307 306 306 307 307 308 308 307 309 309 310 311 307 311 309 313 311 313 309 309 309 308 309 311 312 313
310 308 308 310 310 308 312 312 312 313 312 312 311 311 309 308 308 308 308 308 307 307 308 308 309 307 307 307 307 306 307 307 307 306 306 307 309 306 308 309 309 307 304 309 309 310 309 309 309 309 310 310 311 313
310 308 309 311 310 309 311 312 312 313 312 312 312 311 310 309 308 308 307 308 307 307 309 310 309 308 307 307 307 306 307 307 307 305 305 307 308 305 309 307 306 304 304 306 308 307 307 309 309 310 310 311 314 315
309 308 310 312 310 310 312 313 314 314 313 312 312 312 311 311 310 309 309 308 307 308 310 311 310 310 309 307 307 306 306 305 306 306 307 307 305 305 306 307 308 305 306 307 310 307 308 309 308 309 309 310 311 313
308 308 311 312 311 310 312 314 315 316 314 313 312 311 311 311 311 310 310 310 309 308 307 312 310 310 309 310 307 306 306 305 305 306 305 303 303 305 308 309 307 306 306 305 307 306 307 307 307 307 308 309 310 312
308 309 312 312 311 310 312 314 316 316 317 315 314 313 313 313 312 312 311 310 309 307 307 311 312 311 309 309 309 307 308 306 305 306 306 306 305 303 307 308 306 306 305 304 305 305 306 306 307 306 307 308 312 315
308 310 312 312 311 310 311 312 315 316 316 316 316 315 314 314 313 313 313 311 309 307 307 310 312 311 310 311 309 309 308 307 306 307 307 306 307 305 308 306 307 307 306 304 304 305 305 306 305 305 306 310 311 313
309 311 312 312 312 311 310 312 312 315 316 316 315 314 314 314 314 313 311 309 308 309 309 308 312 316 311 311 309 307 307 309 306 308 308 307 308 311 308 307 306 307 306 304 305 304 305 305 305 304 305 306 308 311
309 311 311 312 312 311 310 311 312 313 314 315 315 315 314 315 313 311 311 310 310 310 309 307 309 313 312 311 310 309 308 309 309 308 307 306 307 307 306 304 303 306 306 305 305 304 303 304 304 304 304 305 306 308
309 310 311 312 312 311 312 313 315 315 313 315 316 316 316 315 312 311 312 311 311 312 310 308 309 312 311 315 314 310 310 310 312 308 308 308 310 307 305 303 303 305 307 305 304 303 303 303 304 304 303 303 304 306
309 310 311 312 313 314 315 314 314 313 313 313 314 314 315 314 313 313 314 311 313 316 312 312 313 310 312 313 313 311 313 311 310 307 308 312 309 307 304 303 303 305 306 306 305 304 302 302 302 303 303 303 303 304
309 310 311 312 313 315 315 314 314 314 313 313 315 316 316 315 313 313 314 314 314 312 310 311 312 313 313 312 313 313 314 313 308 309 312 310 307 306 304 303 303 304 305 305 305 305 304 302 300 301 302 302 302 302
310 310 312 313 313 314 317 314 314 315 315 315 318 312 318 316 316 315 315 314 312 310 310 308 310 314 313 314 314 314 311 309 309 309 309 309 307 305 304 304 303 304 304 304 303 304 305 304 302 301 300 301 302 301
310 310 314 314 313 315 318 315 314 315 316 316 318 318 318 315 312 312 311 311 312 310 308 312 313 313 311 311 309 309 309 310 310 309 308 307 306 305 304 303 302 304 303 304 302 302 302 303 303 303 302 301 301 301
310 311 314 311 311 312 312 313 314 316 317 317 317 320 317 313 315 312 312 312 311 309 307 307 310 311 310 309 309 308 309 309 308 307 306 305 303 301 302 302 302 303 302 301 301 301 301 300 300 299 300 300 299 300
310 311 312 313 313 313 313 313 315 317 319 320 320 318 317 315 314 313 314 311 310 307 310 308 308 308 307 308 308 308 309 307 305 305 304 303 302 301 302 302 302 302 301 301 301 300 300 300 299 300 300 299 299 299
313 315 314 315 315 313 313 316 317 320 322 322 319 317 316 315 315 314 313 315 310 307 307 307 306 310 309 307 307 307 306 305 304 304 304 305 301 301 301 302 302 301 300 301 300 300 300 299 299 300 300 300 300 300
316 317 317 316 318 317 316 319 319 321 321 318 318 318 315 315 315 314 308 309 311 310 310 307 311 313 309 307 307 307 306 304 305 304 305 303 301 301 301 301 302 300 300 300 299 299 299 299 299 299 300 300 300 300
310 318 320 319 320 317 318 321 322 322 319 319 317 316 316 317 317 316 312 311 312 311 309 310 311 309 307 307 307 307 307 305 304 306 305 301 301 300 301 301 301 301 301 301 299 299 299 299 299 300 299 300 300 300
311 315 318 316 316 317 319 320 321 320 319 318 318 318 318 315 316 314 313 312 312 313 313 311 309 309 310 309 309 307 307 306 306 305 303 302 300 300 300 301 300 300 300 300 300 299 299 299 299 300 299 300 300 300
311 316 319 319 322 324 324 323 322 321 319 319 318 317 317 317 317 314 314 313 314 312 311 311 310 310 310 310 309 307 307 306 306 303 301 300 300 300 299 299 299 300 299 299 299 299 299 299 299 299 299 300 300 300
315 318 320 322 323 324 321 319 318 319 321 319 317 318 317 316 315 312 314 313 313 312 312 311 311 311 309 307 308 308 308 308 304 302 301 300 299 298 299 299 299 299 299 299 299 299 299 299 298 299 299 299 299 299
317 318 321 323 323 323 321 322 321 319 317 318 318 319 318 316 314 314 315 313 313 312 309 310 310 308 307 306 307 309 308 307 303 301 300 299 299 299 299 299 298 298 298 298 298 298 298 299 299 299 298 298 299 299
317 319 319 317 316 319 321 320 320 320 320 318 319 319 319 316 318 317 316 313 313 311 310 310 309 307 307 307 306 306 306 304 301 300 299 299 299 300 299 298 298 297 297 298 297 298 297 298 299 299 298 298 298 298
311 319 319 320 321 322 320 320 319 319 319 319 318 318 317 318 317 317 316 313 313 312 311 310 309 309 306 305 305 304 302 302 300 300 299 299 300 298 298 297 297 297 296 296 297 298 298 298 299 298 298 298 298 298
315 321 319 320 319 318 319 318 317 318 321 320 319 319 316 317 316 316 315 314 313 312 311 310 309 307 304 303 302 301 301 301 300 299 298 298 298 298 297 297 297 296 296 296 297 297 298 298 298 298 298 297 297 297
319 320 321 321 320 319 320 319 319 319 320 318 318 318 317 317 316 314 315 314 313 313 311 307 305 303 302 302 301 300 300 299 299 299 298 298 297 297 296 296 295 296 296 296 297 297 298 298 298 298 297 297 297 297
319 322 322 321 320 320 320 320 319 317 319 318 319 318 317 314 312 312 311 309 311 310 306 303 302 301 301 300 299 299 298 297 298 298 298 298 297 296 295 295 296 296 296 296 296 297 297 298 298 298 297 297 297 297
319 319 322 322 322 323 322 320 318 318 319 318 316 316 314 310 309 309 308 308 306 304 303 302 301 300 299 299 298 295 293 294 296 297 297 297 296 295 295 296 296 296 296 297 297 297 297 297 297 297 297 296 296 296
320 319 321 322 323 321 321 320 318 319 318 317 317 315 311 308 308 307 306 305 304 303 302 301 300 299 299 297 294 294 294 295 295 295 295 295 295 294 295 295 295 295 296 297 297 296 296 296 296 296 296 296 295 295
319 321 322 324 323 320 320 318 318 318 317 317 316 314 312 310 309 308 306 304 304 303 301 300 299 299 298 297 295 294 293 293 294 294 294 294 293 294 295 295 295 295 295 295 295 295 295 295 295 294 294 294 294 294
321 320 320 321 320 319 319 319 319 319 318 318 317 316 315 315 314 310 307 304 304 303 301 300 299 299 298 297 295 294 293 293 292 292 293 293 294 294 294 294 294 294 294 294 294 294 294 294 294 294 294 293 293 293

GFSWCAN_850_thetae_072.txt.gz
Theta_e
314 311 309 309 310 308 310 311 311 313 313 312 310 310 309 308 308 309 308 308 310 311 311 310 309 309 309 308 309 308 310 310 309 310 310 312 313 313 311 311 310 311 311 312 311 312 312 312 314 316 312 310 313 314
314 310 309 310 311 309 311 312 312 313 313 312 311 310 309 308 308 308 308 307 307 309 312 310 310 309 308 308 308 309 309 309 309 308 310 309 312 310 311 314 308 312 312 312 312 312 312 311 311 311 310 310 310 312
314 310 309 310 311 309 311 313 313 314 313 313 311 309 308 308 308 308 309 308 308 309 312 312 312 310 309 308 308 309 309 308 308 308 308 309 310 308 311 312 310 308 302 310 311 312 312 308 311 311 310 311 311 313
313 309 309 311 311 310 312 314 315 314 313 313 312 310 309 309 309 308 310 308 309 310 314 314 310 311 308 309 309 309 309 309 309 308 308 310 310 307 308 309 307 306 305 308 310 310 307 309 310 309 310 311 311 312
311 309 310 312 311 310 311 314 316 314 314 312 312 312 312 311 311 310 310 309 309 310 315 315 312 311 309 310 309 308 308 309 309 310 310 310 307 306 307 308 307 303 306 307 309 306 306 307 308 308 308 310 311 311
310 309 311 312 311 310 311 314 316 316 315 314 312 312 312 312 311 311 314 311 311 309 312 317 314 312 310 310 310 309 309 308 309 309 308 307 305 306 309 310 307 307 305 302 304 305 306 306 306 306 306 308 309 312
308 309 311 312 311 311 310 312 315 316 316 316 315 314 313 313 313 314 314 312 311 309 311 316 317 314 312 309 310 309 307 309 309 309 309 307 307 307 309 309 307 306 305 305 304 304 305 305 306 305 306 307 310 315
308 310 311 311 311 311 310 311 313 315 316 316 315 314 314 314 314 313 312 312 310 309 310 313 317 315 313 312 310 308 308 308 310 310 310 308 309 308 310 307 306 307 306 305 304 304 304 304 304 304 305 307 309 311
309 310 310 311 312 312 311 310 312 312 314 315 314 314 313 313 313 314 313 310 309 309 312 311 316 319 313 312 309 307 307 310 310 311 310 309 310 311 309 307 306 307 307 307 305 304 304 304 303 302 303 305 306 307
309 310 310 311 312 312 310 310 311 314 314 313 314 313 314 315 314 312 310 309 309 309 309 310 313 317 314 314 312 309 308 311 313 311 310 311 310 307 306 306 307 307 307 307 306 305 304 303 303 302 301 302 304 305
309 309 310 311 311 312 314 314 314 314 313 314 316 318 315 314 312 311 313 314 314 314 313 313 313 316 314 317 316 312 311 312 314 311 310 311 312 308 306 306 306 307 306 306 306 305 304 304 304 302 301 301 302 303
309 309 310 310 311 312 316 314 314 314 314 315 315 314 313 314 313 317 319 317 318 318 317 316 316 313 315 314 316 313 314 313 312 309 310 313 309 307 306 306 305 307 306 306 306 306 305 304 304 304 303 302 302 303
309 310 310 311 312 312 316 315 313 314 314 313 316 317 317 319 318 319 319 318 317 316 314 314 314 315 313 313 315 316 316 314 311 312 311 310 308 307 307 306 305 306 306 305 305 305 305 305 304 304 304 304 304 302
310 310 310 314 313 312 316 318 316 314 314 318 320 317 322 320 320 318 319 318 316 314 313 312 312 316 315 316 316 315 314 312 311 313 310 309 309 307 306 306 305 305 305 304 304 305 304 304 304 305 304 304 304 303
310 310 311 314 313 313 314 316 313 313 315 320 321 320 321 318 318 318 317 314 314 312 311 312 317 317 314 313 311 311 311 312 312 311 309 308 308 306 305 305 304 305 304 303 303 303 304 303 303 304 304 303 303 304
310 311 314 313 312 312 312 312 313 314 317 320 321 322 319 320 319 319 319 318 311 312 311 311 312 312 311 311 310 310 310 310 309 308 307 308 307 305 305 305 304 305 304 303 303 303 303 303 303 303 303 303 303 303
310 314 314 314 313 313 313 313 314 317 321 323 321 321 321 320 320 319 316 313 314 312 312 310 309 310 310 310 309 310 311 310 307 308 307 307 306 306 305 305 304 305 304 304 303 303 302 302 302 302 302 303 303 303
311 316 316 316 315 313 313 314 319 322 324 322 322 321 320 319 319 318 314 312 310 310 310 309 310 312 313 311 311 311 309 308 308 307 306 307 306 305 305 305 305 305 304 303 303 302 302 302 301 301 302 302 302 302
311 311 318 317 319 320 318 320 318 323 322 322 322 321 319 319 317 313 312 313 312 311 310 311 313 314 312 311 310 310 309 308 307 306 306 306 304 304 304 304 304 303 302 303 302 301 301 301 301 301 301 302 302 302
311 315 318 319 319 319 321 323 322 325 323 322 321 322 321 320 319 317 314 314 314 315 314 314 314 313 311 310 309 309 308 306 305 306 305 304 302 302 303 303 302 302 302 302 302 300 300 301 301 301 301 301 302 301
311 311 315 317 316 316 321 323 324 324 322 322 322 322 321 320 319 318 317 316 315 315 314 313 312 311 311 311 310 309 308 306 306 304 303 303 302 302 302 302 301 301 301 301 301 301 300 300 301 301 301 301 301 301
310 315 319 319 322 324 325 326 325 324 323 322 323 321 320 319 319 318 317 316 314 313 313 312 311 310 309 308 309 309 309 309 307 304 302 302 302 302 302 301 301 301 301 301 300 300 301 301 301 301 301 301 300 300
313 318 322 323 326 325 324 321 323 324 324 323 322 321 320 319 318 316 316 315 313 312 312 312 310 309 308 311 310 311 310 309 306 304 303 302 302 301 301 301 300 300 301 300 300 300 300 299 300 300 301 301 301 300
315 321 325 325 326 324 324 325 324 324 323 321 321 321 320 319 318 316 316 314 311 311 311 313 311 309 309 310 308 308 309 308 305 303 302 302 302 302 301 300 299 299 299 299 300 300 300 301 300 300 300 300 300 300
319 320 320 318 319 323 323 323 323 322 322 322 320 320 320 319 319 317 315 313 313 311 311 311 311 311 309 308 307 306 304 304 303 303 302 301 302 301 299 299 298 298 298 298 299 299 300 300 300 300 300 299 299 299
311 320 321 322 325 325 323 323 323 322 322 322 321 319 318 319 318 316 315 314 312 312 312 312 312 310 307 306 305 304 302 302 302 301 301 301 300 299 298 298 298 297 297 298 299 300 300 300 300 300 299 298 298 299
316 321 323 322 324 324 324 323 322 321 323 323 322 321 318 317 317 317 316 316 315 314 311 309 307 305 304 303 302 301 301 301 301 300 300 299 299 298 297 298 298 298 298 298 298 299 299 299 299 299 299 299 298 298
321 322 324 324 324 324 325 324 324 323 323 323 321 321 317 316 316 316 317 314 312 311 306 304 303 303 302 301 301 301 300 300 300 299 299 299 298 297 297 297 297 296 297 297 298 298 299 299 299 299 299 298 298 298
322 323 323 324 325 325 325 325 323 321 323 322 322 320 319 317 317 316 314 309 307 306 304 303 302 301 300 300 299 298 298 299 300 300 300 299 298 297 297 298 298 298 298 298 296 298 299 299 299 298 298 298 298 298
321 323 325 325 325 326 326 324 323 322 322 322 321 319 317 315 311 310 309 307 307 306 304 303 302 301 301 300 298 297 298 298 299 299 299 298 297 297 298 298 298 298 298 298 298 297 298 298 298 298 298 297 297 297
323 322 324 325 325 326 325 323 322 322 321 321 320 320 318 313 308 309 308 308 306 304 303 302 301 301 300 299 298 298 298 298 298 297 297 296 296 297 297 297 298 298 298 298 298 297 297 297 297 297 297 296 296 296
322 323 324 326 326 325 323 324 324 323 323 322 322 320 318 314 313 309 307 306 305 305 303 302 301 300 298 297 298 297 297 297 297 297 296 296 296 297 297 297 297 297 297 297 297 297 296 296 296 296 296 296 296 296
326 325 325 325 325 325 324 324 323 323 322 323 322 321 320 319 318 313 308 305 305 305 304 302 300 299 298 297 297 296 296 296 294 294 294 295 296 296 296 296 296 296 296 296 296 296 296 296 296 296 296 296 296 295

GFSWCAN_850_thetae_075.txt.gz
Theta_e
321 315 310 309 310 310 310 312 313 313 313 312 312 310 308 308 308 313 311 311 314 315 314 313 311 311 310 311 314 312 313 312 311 312 314 314 314 313 313 312 313 313 316 317 316 315 314 314 315 316 318 317 315 315
322 316 310 309 311 310 311 313 314 314 313 313 311 310 309 309 308 312 315 310 311 314 315 313 312 311 311 311 312 312 312 311 311 312 312 313 312 312 312 315 310 314 311 313 314 314 312 314 313 313 313 314 313 313
321 316 310 309 312 310 311 314 315 314 313 313 310 309 309 309 309 311 314 313 313 315 316 315 315 312 311 311 310 312 312 311 311 311 310 312 312 311 312 311 311 310 307 310 311 311 312 312 312 313 312 312 312 312
321 314 309 310 312 310 311 314 315 314 313 313 313 311 310 309 309 310 315 314 314 315 317 317 314 314 311 312 311 311 311 311 311 310 310 312 312 310 311 310 309 308 306 309 310 310 307 311 308 309 309 310 311 311
321 313 309 310 312 311 310 313 315 316 315 313 313 313 313 312 312 312 314 314 314 314 318 317 315 315 313 313 312 312 312 311 311 312 312 312 309 309 308 309 309 304 304 307 308 304 304 305 307 307 308 309 309 311
320 311 309 311 311 311 310 311 315 316 316 316 314 313 313 312 313 313 316 315 314 314 315 318 317 315 313 313 313 312 312 311 311 310 310 309 309 309 311 310 308 306 305 304 304 304 304 304 305 306 306 307 308 309
317 309 309 310 311 311 311 310 312 315 316 316 316 315 314 313 313 314 315 314 313 313 314 318 317 317 315 313 312 310 311 311 311 311 310 310 310 308 311 311 308 307 306 306 305 305 304 303 303 303 304 305 307 309
311 308 309 310 310 311 312 311 311 312 314 315 315 315 314 313 314 314 314 314 313 313 314 317 318 318 315 314 312 309 308 308 312 312 311 310 311 310 311 309 308 309 308 307 306 305 304 302 302 301 302 304 306 309
308 309 309 310 310 311 312 311 310 312 313 313 313 313 313 313 314 315 314 313 311 312 314 314 321 318 316 315 310 308 308 312 311 314 313 311 312 310 311 308 308 308 308 307 306 305 305 304 301 300 300 301 303 305
308 309 309 310 310 311 312 311 311 313 315 313 313 314 315 315 315 314 311 312 312 313 312 314 317 317 317 316 313 311 309 313 315 314 312 314 313 310 308 308 308 307 307 308 307 306 305 305 303 301 300 300 301 302
308 309 309 309 310 311 312 314 314 314 314 315 318 319 318 316 313 313 315 316 317 316 316 316 316 316 316 318 318 314 314 314 316 315 313 314 313 309 308 307 307 307 307 307 307 306 306 305 305 304 303 301 301 301
309 309 309 310 310 311 312 315 314 314 319 319 319 317 315 313 315 318 322 321 321 320 318 318 316 316 315 317 317 315 315 315 315 312 312 314 313 309 308 308 307 307 308 307 307 307 306 306 306 305 305 303 301 301
309 309 310 310 313 312 312 316 315 313 313 318 318 318 318 321 320 322 321 320 320 317 315 313 316 317 317 316 316 315 315 316 313 314 314 313 311 309 309 308 306 307 307 306 305 306 305 305 306 306 305 305 304 302
309 310 310 311 312 312 314 317 317 314 314 321 322 321 323 323 321 321 319 324 319 317 316 312 315 318 315 315 314 316 316 313 313 314 313 313 311 309 307 307 307 307 306 305 305 305 305 304 305 305 304 304 305 305
310 310 310 313 312 313 313 314 315 312 318 322 322 325 322 321 319 321 320 321 318 316 313 314 316 311 314 314 313 312 312 313 314 313 312 311 310 308 307 307 306 307 306 305 305 305 305 304 304 305 304 304 304 305
310 311 314 314 313 313 313 312 312 313 320 322 322 322 321 322 321 321 319 319 316 316 315 314 314 314 314 313 312 312 312 313 313 311 310 310 309 308 307 306 306 306 306 305 304 304 304 304 304 304 304 304 304 304
310 316 314 315 315 314 313 316 318 320 322 323 322 321 321 322 321 320 319 318 316 314 316 314 314 314 313 313 313 314 314 312 310 310 309 309 308 307 306 306 306 306 306 305 304 305 304 304 304 304 304 305 304 305
312 312 312 317 315 316 314 314 321 322 323 323 322 322 322 321 319 317 316 315 315 315 315 314 313 315 314 315 315 314 310 310 310 309 308 309 308 306 305 305 305 305 306 305 305 304 304 303 303 303 304 304 304 304
311 311 314 317 319 320 321 323 322 324 323 324 322 323 322 322 319 317 317 316 315 315 315 315 315 315 315 314 311 310 309 309 307 308 309 307 306 304 304 305 305 305 304 304 303 303 303 303 303 302 303 304 303 303
311 312 318 317 319 322 323 323 325 325 325 323 323 323 323 320 318 317 316 316 316 316 315 314 314 313 312 311 309 310 308 307 307 307 307 306 305 304 305 304 304 303 304 304 304 301 302 303 303 302 301 302 303 303
311 315 313 318 317 319 322 324 324 324 322 323 325 324 322 320 319 318 317 317 314 313 313 312 312 311 311 309 308 308 309 306 307 306 304 304 303 304 304 304 303 303 303 303 303 303 302 303 302 303 303 303 303 302
317 313 322 320 324 326 326 326 325 324 325 323 322 322 321 320 319 317 317 315 313 312 311 311 310 310 310 309 309 309 310 308 308 307 304 304 304 303 304 303 302 302 303 302 302 303 302 302 302 303 302 303 302 301
311 318 323 325 327 327 324 324 325 323 323 322 321 321 319 319 319 318 316 314 312 311 311 310 310 312 312 312 313 312 311 309 309 307 305 304 304 304 303 302 302 301 301 302 302 302 303 300 301 301 302 302 302 302
314 323 325 326 326 326 325 324 323 323 322 321 320 321 320 319 318 316 316 314 312 312 313 312 312 311 311 311 310 309 308 306 306 306 305 304 304 303 301 300 300 300 300 301 301 301 302 301 300 301 301 302 302 302
321 320 322 319 323 324 324 322 322 321 322 322 321 320 319 319 318 316 315 314 312 312 312 312 312 311 311 309 307 307 306 304 304 305 303 303 302 302 301 300 299 298 299 300 300 301 301 301 301 301 301 301 301 301
316 319 321 323 324 325 323 322 322 322 322 323 322 321 319 319 317 316 315 314 313 313 312 312 311 309 308 306 305 304 303 303 304 303 302 302 301 301 300 300 300 299 299 300 301 301 302 302 302 301 300 299 299 300
318 321 323 325 325 324 324 323 323 322 323 323 323 323 320 318 317 317 316 315 314 313 311 309 307 306 305 305 304 303 302 302 302 302 301 300 300 299 300 300 300 299 299 300 300 301 301 301 300 301 301 301 300 300
321 323 325 324 324 325 325 325 324 323 323 323 323 323 321 319 319 318 317 315 312 310 307 306 305 304 304 303 303 303 302 302 301 301 301 300 299 299 300 299 298 298 298 299 300 300 300 301 301 301 300 300 299 299
321 322 324 325 325 326 326 325 324 322 322 323 324 324 322 320 320 318 316 313 310 308 306 305 304 304 303 302 301 300 302 302 303 303 302 301 300 300 300 300 300 300 299 298 297 299 300 299 299 300 299 299 299 299
321 323 324 324 325 326 326 324 324 324 324 324 324 322 321 320 318 317 314 312 311 310 307 305 304 304 304 303 301 301 301 301 301 302 302 301 299 300 300 300 300 300 300 299 299 299 298 299 299 299 298 298 298 298
323 324 325 325 324 325 325 326 325 325 325 325 324 323 323 320 315 313 313 312 311 309 307 305 304 304 303 302 302 302 301 300 300 300 299 299 299 300 299 300 300 300 299 299 299 299 299 298 298 298 298 298 298 298
324 325 324 325 326 328 326 326 326 326 325 326 326 325 323 320 318 314 313 312 311 309 307 305 304 303 301 301 301 301 300 300 299 299 299 299 299 299 299 299 299 299 299 299 299 299 298 298 298 298 298 298 298 297
324 324 324 324 324 327 327 326 327 326 326 325 326 325 324 323 322 317 312 312 310 310 308 306 304 302 301 301 300 299 300 300 299 298 298 298 298 299 299 299 299 298 298 298 298 299 299 299 299 298 298 298 297 298